Regional Weather Roundup
Issued by NWS

Home | Current Version | Previous Version | Graphics & Text | Print | Product List | Glossary On
Versions: 1 2 3 4 5 6 7 8 9 10 11 12 13 14 15 16 17 18 19 20 21 22 23 24 25 26 27 28 29 30 31 32 33 34 35 36 37 38 39 40 41 42 43 44 45 46 47 48 49 50
000
ASUS43 KFSD 290810
RWRSD

WEATHER ROUNDUP FOR SOUTH DAKOTA
NATIONAL WEATHER SERVICE SIOUX FALLS SD
300 AM CDT SAT AUG 29 2015

NOTE: "FAIR" INDICATES FEW OR NO CLOUDS BELOW 12,000 FEET WITH NO
SIGNIFICANT WEATHER AND/OR OBSTRUCTIONS TO VISIBILITY.


SDZ001>005-009-010-012>017-290900-
NORTHWEST AND NORTH CENTRAL SOUTH DAKOTA

CITY           SKY/WX    TMP DP  RH WIND       PRES   REMARKS
BUFFALO          N/A     63  46  54 W6        29.97F
MOBRIDGE       CLEAR     67  67 100 SE8       29.93S
$$

SDZ012>016-024>037-041>051-057-063-072>074-290900-
SOUTHWEST AND SOUTH CENTRAL SOUTH DAKOTA

CITY           SKY/WX    TMP DP  RH WIND       PRES   REMARKS
RAPID CTY ARPT CLEAR     61  55  81 W5        30.06F
PIERRE         PTCLDY    63  62  97 SE6       29.96F
CUSTER         CLEAR     56  47  71 NW3       30.23F
ELLSWORTH AFB  CLEAR     65  54  69 W8        30.04F
PHILIP         CLEAR     62  60  93 W7        30.00F
PINE RIDGE     CLEAR     54  50  86 CALM      30.10F
WINNER         FAIR      66  61  84 S7        30.02F
$$

SDZ004>011-016>023-039-040-290900-
NORTHEAST SOUTH DAKOTA

CITY           SKY/WX    TMP DP  RH WIND       PRES   REMARKS
ABERDEEN       CLEAR     64  62  93 S9        29.96F
WATERTOWN      CLEAR     60  57  89 S7        30.01F
BROOKINGS      CLEAR     55  52  88 S3        30.04F
SISSETON         N/A     61  59  93 S7        29.95F
$$

SDZ017-020-022-023-036>040-048>070-290900-
SOUTHEAST SOUTH DAKOTA

CITY           SKY/WX    TMP DP  RH WIND       PRES   REMARKS
SIOUX FALLS    PTCLDY    54  53  97 CALM      30.02F FOG
HURON          CLEAR     61  60  97 S9        30.00S
CHAMBERLAIN    CLEAR     61  61 100 S3        30.01F
MITCHELL       CLEAR     60  59  96 S3        30.03R
YANKTON        CLEAR     54  52  94 N3        30.02S
$$

ABBREVIATIONS USED IN REMARKS
   TC - TEMPERATURE IN CELSIUS
  WCI - WIND CHILL INDEX
   HX - HEAT INDEX
  VSB - VISIBILITY




USA.gov is the U.S. government's official web portal to all federal, state and local government web resources and services.